This demonstration page uses our WeatherBlox Daily Observations layout. Learn more.

Left ArrowRight Arrow

41.86663, -103.66717

Hourly Observations for March 1, 2017

Temp ( °F °C ) Dew Point ( °F °C ) Humidity (%) Winds ( mph kmh ) Pressure ( in mb ) Visibility ( mi km ) Precip ( " mm )
12:53 am 00:53 Clear 24 -4.4 12 -11.1 60 60 W 15 24 30.05 1018 10 16 0.00 0.00
1:53 am 01:53 Clear 24 -4.4 12 -11.1 60 60 WNW 18 30 30.08 1019 10 16 0.00 0.00
2:53 am 02:53 Clear 25 -3.9 12 -11.1 58 58 WNW 21 33 30.11 1020 10 16 0.00 0.00
3:53 am 03:53 Clear 23 -5 11 -11.7 60 60 WNW 12 19 30.14 1021 10 16 0.00 0.00
4:53 am 04:53 Clear 22 -5.6 10 -12.2 60 60 WNW 15 24 30.18 1022 10 16 0.00 0.00
5:53 am 05:53 Clear 19 -7.2 9 -12.8 65 65 WNW 8 13 30.23 1024 10 16 0.00 0.00
6:53 am 06:53 Sunny 19 -7.2 9 -12.8 65 65 WNW 10 17 30.26 1025 10 16 0.00 0.00
7:53 am 07:53 Sunny 23 -5 10 -12.2 57 57 WNW 10 17 30.28 1026 10 16 0.00 0.00
8:53 am 08:53 Sunny 25 -3.9 11 -11.7 55 55 WNW 12 19 30.29 1026 10 16 0.00 0.00
9:53 am 09:53 Sunny 30 -1.1 13 -10.6 49 49 WNW 14 22 30.29 1026 10 16 0.00 0.00
10:53 am 10:53 Sunny 33 0.6 16 -8.9 49 49 WNW 15 24 30.28 1025 10 16 0.00 0.00
11:53 am 11:53 Sunny 35 1.7 17 -8.3 48 48 WNW 17 28 30.26 1025 10 16 0.00 0.00
12:53 pm 12:53 Sunny 36 2.2 19 -7.2 50 50 WNW 22 35 30.24 1024 10 16 0.00 0.00
1:53 pm 13:53 Sunny 36 2.2 19 -7.2 50 50 W 22 35 30.22 1023 10 16 0.00 0.00
2:53 pm 14:53 Sunny 37 2.8 21 -6.1 52 52 W 25 41 30.21 1023 10 16 0.00 0.00
3:53 pm 15:53 Sunny 36 2.2 21 -6.1 55 55 W 29 46 30.21 1023 10 16 0.00 0.00
4:53 pm 16:53 Sunny 32 0 12 -11 44 44 W 14 22 29.91 1013 10 16 0.00 0.00
5:53 pm 17:53 Clear 33 0.6 19 -7.2 56 56 W 18 30 30.27 1025 10 16 0.00 0.00
6:53 pm 18:53 Clear 32 0 19 -7.2 59 59 W 18 30 30.28 1026 10 16 0.00 0.00
7:53 pm 19:53 Clear 32 0 18 -7.8 56 56 W 18 30 30.28 1026 10 16 0.00 0.00
8:53 pm 20:53 Clear 30 -1.1 17 -8.3 58 58 W 15 24 30.30 1026 10 16 0.00 0.00
9:53 pm 21:53 Clear 31 -0.6 17 -8.3 56 56 W 14 22 30.29 1026 10 16 0.00 0.00
10:53 pm 22:53 Clear 30 -1.1 17 -8.3 58 58 WNW 13 20 30.30 1026 10 16 0.00 0.00
11:53 pm 23:53 Clear 29 -1.7 18 -7.8 63 63 W 12 19 30.30 1026 10 16 0.00 0.00

Powered by AerisWeather